Showing default

POLAR BEAR, 17070

Orbit data source: Space-Track

POLAR BEAR, 17070 is an American payload satellite in LEO that was launched on Fri, 14 Nov 1986 UTC via an SCOUT G-1 launch vehicle from the Air Force Western Test Range (AFWTR). Payload-class satellites include a variety of spacecraft equipped with specific instruments for various scientific and technological missions. These include communications satellites like Starlink; space stations such as the ISS; scientific satellites like the Hubble; Earth observation satellites from companies like Planet Labs, Umbra, and HawkEye 360; GPS; miniature CubeSats for education and research; and military/defense satellites.

Loading next visibility...
Identifier
17070, 1986-088A
Orbit
LEO
Country
Flag of USUS
Related business
Manufacturer
APL
Mission
Civil Science
Bus & Motor
TRANSIT 5, Unknown motor
Mass
114 kg wet, 114 kg dry
Launch date (UTC)
1986-11-14 (39 years ago)
Launch vehicle
SCOUT G-1
Launch site
Air Force Western Test Range (AFWTR)
Object type
Payload
Rocket body
Debris
Shape & HBR
Oct Cyl + 4 Pan + 1 Ant, Unknown HBR
Radar Cross Section
0.163 m², Large (>1 m²)

Expand to show TLE details & history
Last TLE update: 16 hours ago

TLE from 16 hours ago
0 POLAR BEAR
1 17070U 86088A   25260.83059156  .00000097  00000-0  89296-4 0  9991
2 17070  89.6233 187.1811 0040346  22.6321  36.3471 13.75225866947984
Epoch: 2025-09-17T19:56Z
TLE epoch observation values (Epoch: 2025-09-17T19:56:03.11Z)
Latitude
59.34438°
Longitude
-108.2005°
Altitude
967.147 km
Speed
7.386 km/s
True Right ascension
12h 31m 15s
True Declination
59° 11' 51"
Sunlit
Object was in daylight at epoch
Visualization orbit readout
Latitude
Unknown
Longitude
Unknown
Altitude
Unknown
Speed
Unknown
Apparent Right ascension
Unknown
Apparent Declination
Unknown
Sunlit
N/A
Visualization observer readout
Local Sidereal Time
04:27:12
Azimuth
Unknown
Elevation
Unknown
Doppler factor
Unknown
Orbital elements
Apogee altitude
1,007.561 km
Perigee altitude
948.204 km
Semi-major axis
7,356.019 km
Eccentricity
0.00403
Inclination
89.6233°
RAAN
187.1811°
Arg. of periapsis
22.6321°
True anomaly
36.62223°
Mean anomaly
36.3471°
Eccentric anomaly
36.48455°
Mean motion
3.44016 °/min
Orbital period
104.65 mins
BSTAR
0.000089296
Loading maneuver chart data...
Computing Atmospheric mass density...
Loading historical data...
Loading historical data...
Loading historical data...
Loading historical data...
Loading historical data...
Loading historical data...
Loading historical data...
Other satellites on launch #88 in the year 1986 (1986-11-14 UTC)

Documentation

Showing up to 5 results
|